When you browse on this site, cookies collect data to enhance your experience and personalize the content and advertising you see.
Visit our Privacy Policy to learn more. By continuing to use the site, you agree to this use of cookies and data.
  • In Latvia
  • List of Countries
  • For 7 days
  • Water Temperature
  • Satellite Maps
  • Weather Map
  • Weather Widgets
  • user-avatar
    Login

    Hourly Weather Stuttgart

    Today, 18 January, Friday

    Time Temperature Precipitation Wind Pressure Humidity
    00:00 -1°C° 0 mm 4 mps 734 mmHg 86%
    01:00 -1°C° 0 mm 3 mps 734 mmHg 87%
    02:00 -1°C° 0 mm 3 mps 734 mmHg 87%
    03:00 -2°C° 0 mm 3 mps 735 mmHg 87%
    04:00 -3°C° 0 mm 4 mps 735 mmHg 88%
    05:00 -2°C° 0 mm 3 mps 735 mmHg 88%
    06:00 -2°C° 0 mm 3 mps 736 mmHg 89%
    07:00 -2°C° 0 mm 2 mps 736 mmHg 89%
    08:00 -2°C° 0 mm 2 mps 737 mmHg 87%
    09:00 +1°C° 0 mm 1 mps 737 mmHg 85%
    10:00 +1°C° 0 mm 1 mps 738 mmHg 83%
    11:00 +2°C° 0 mm 1 mps 738 mmHg 79%
    12:00 +1°C° 0 mm 0 mps 738 mmHg 75%
    13:00 +2°C° 0 mm 0 mps 738 mmHg 71%
    14:00 +2°C° 0 mm 0 mps 738 mmHg 70%
    15:00 +1°C° 0 mm 0 mps 737 mmHg 69%
    16:00 +2°C° 0 mm 1 mps 737 mmHg 69%
    17:00 +1°C° 0 mm 1 mps 737 mmHg 72%
    18:00 +1°C° 0 mm 1 mps 737 mmHg 75%
    19:00 0°C° 0 mm 1 mps 737 mmHg 78%
    20:00 0°C° 0 mm 1 mps 737 mmHg 79%
    21:00 -1°C° 0 mm 1 mps 737 mmHg 80%
    22:00 -1°C° 0 mm 1 mps 737 mmHg 81%
    23:00 -1°C° 0 mm 1 mps 737 mmHg 81%

    Tomorrow, 19 January, Saturday

    Time Temperature Precipitation Wind Pressure Humidity
    00:00 -1°C° 0 mm 1 mps 737 mmHg 81%
    01:00 -1°C° 0 mm 1 mps 737 mmHg 81%
    02:00 -1°C° 0 mm 1 mps 737 mmHg 81%
    03:00 -1°C° 0 mm 1 mps 736 mmHg 82%
    04:00 -1°C° 0 mm 1 mps 736 mmHg 82%
    05:00 -2°C° 0 mm 1 mps 736 mmHg 83%
    06:00 -2°C° 0 mm 1 mps 736 mmHg 84%
    07:00 -2°C° 0 mm 1 mps 736 mmHg 85%
    08:00 -4°C° 0 mm 2 mps 735 mmHg 82%
    09:00 -3°C° 0 mm 2 mps 735 mmHg 79%
    10:00 -3°C° 0 mm 2 mps 735 mmHg 76%
    11:00 -2°C° 0 mm 2 mps 735 mmHg 70%
    12:00 -1°C° 0 mm 2 mps 734 mmHg 65%
    13:00 +1°C° 0 mm 2 mps 734 mmHg 59%
    14:00 +1°C° 0 mm 2 mps 733 mmHg 61%
    15:00 +2°C° 0 mm 1 mps 733 mmHg 63%
    16:00 +2°C° 0 mm 1 mps 733 mmHg 65%
    17:00 +1°C° 0 mm 1 mps 733 mmHg 70%
    18:00 0°C° 0 mm 1 mps 733 mmHg 74%
    19:00 -1°C° 0 mm 1 mps 733 mmHg 78%
    20:00 -1°C° 0 mm 1 mps 733 mmHg 78%
    21:00 -1°C° 0 mm 1 mps 733 mmHg 78%
    22:00 -1°C° 0 mm 1 mps 733 mmHg 78%
    23:00 -1°C° 0 mm 1 mps 733 mmHg 76%

    Day after tomorrow, 20 January, Sunday

    Time Temperature Precipitation Wind Pressure Humidity
    00:00 -1°C° 0 mm 1 mps 733 mmHg 75%
    01:00 -1°C° 0 mm 1 mps 733 mmHg 74%
    02:00 -1°C° 0 mm 1 mps 732 mmHg 75%
    03:00 -1°C° 0 mm 1 mps 732 mmHg 75%
    04:00 -1°C° 0 mm 1 mps 732 mmHg 75%
    05:00 -2°C° 0.1 mm 0 mps 732 mmHg 77%
    06:00 -1°C° 0.1 mm 0 mps 733 mmHg 80%
    07:00 -1°C° 0.1 mm 0 mps 733 mmHg 82%
    08:00 -1°C° 0.1 mm 0 mps 733 mmHg 81%
    09:00 0°C° 0.1 mm 0 mps 733 mmHg 79%
    10:00 0°C° 0.1 mm 0 mps 734 mmHg 78%
    11:00 +1°C° 0 mm 0 mps 734 mmHg 76%
    12:00 +3°C° 0 mm 1 mps 734 mmHg 73%
    13:00 +3°C° 0 mm 1 mps 734 mmHg 70%
    14:00 +3°C° 0 mm 1 mps 734 mmHg 71%
    15:00 +3°C° 0 mm 1 mps 734 mmHg 73%
    16:00 +2°C° 0 mm 1 mps 734 mmHg 74%
    17:00 +1°C° 0 mm 1 mps 735 mmHg 77%
    18:00 +1°C° 0 mm 1 mps 735 mmHg 79%
    19:00 0°C° 0 mm 1 mps 735 mmHg 82%
    20:00 -1°C° 0 mm 1 mps 736 mmHg 84%
    21:00 -1°C° 0 mm 1 mps 736 mmHg 85%
    22:00 -1°C° 0 mm 1 mps 737 mmHg 86%
    23:00 -1°C° 0 mm 1 mps 737 mmHg 87%

    21 January, Monday

    Time Temperature Precipitation Wind Pressure Humidity
    00:00 -1°C° 0 mm 1 mps 738 mmHg 88%
    01:00 -1°C° 0 mm 1 mps 738 mmHg 88%
    02:00 -2°C° 0 mm 1 mps 738 mmHg 88%
    03:00 -2°C° 0 mm 1 mps 738 mmHg 88%
    04:00 -2°C° 0 mm 1 mps 738 mmHg 88%
    05:00 -2°C° 0 mm 1 mps 739 mmHg 88%
    06:00 -2°C° 0 mm 1 mps 739 mmHg 88%
    07:00 -2°C° 0 mm 1 mps 739 mmHg 88%
    08:00 -3°C° 0 mm 0 mps 739 mmHg 85%
    09:00 -2°C° 0 mm 0 mps 740 mmHg 81%
    10:00 -2°C° 0 mm 0 mps 740 mmHg 78%
    11:00 -1°C° 0 mm 0 mps 740 mmHg 73%
    12:00 0°C° 0 mm 0 mps 740 mmHg 69%
    13:00 +1°C° 0 mm 0 mps 740 mmHg 64%
    14:00 +1°C° 0 mm 0 mps 740 mmHg 66%
    15:00 +1°C° 0 mm 0 mps 740 mmHg 67%
    16:00 0°C° 0 mm 0 mps 740 mmHg 69%
    17:00 -1°C° 0 mm 0 mps 740 mmHg 73%
    18:00 -2°C° 0 mm 0 mps 740 mmHg 77%
    19:00 -2°C° 0 mm 0 mps 740 mmHg 81%
    20:00 -3°C° 0 mm 0 mps 740 mmHg 82%
    21:00 -2°C° 0 mm 1 mps 740 mmHg 82%
    22:00 -2°C° 0 mm 1 mps 740 mmHg 83%
    23:00 -2°C° 0 mm 1 mps 739 mmHg 85%

    22 January, Tuesday

    Time Temperature Precipitation Wind Pressure Humidity
    00:00 -2°C° 0 mm 1 mps 739 mmHg 86%
    01:00 -2°C° 0 mm 1 mps 739 mmHg 87%
    02:00 -2°C° 0 mm 1 mps 738 mmHg 87%
    03:00 -2°C° 0 mm 1 mps 737 mmHg 88%
    04:00 -2°C° 0 mm 1 mps 736 mmHg 89%
    05:00 -4°C° 0 mm 2 mps 735 mmHg 88%
    06:00 -4°C° 0 mm 2 mps 735 mmHg 88%
    07:00 -4°C° 0 mm 2 mps 734 mmHg 88%
    08:00 -4°C° 0 mm 3 mps 733 mmHg 83%
    09:00 -2°C° 0 mm 3 mps 732 mmHg 78%
    10:00 -2°C° 0 mm 4 mps 731 mmHg 72%
    11:00 -1°C° 0 mm 4 mps 730 mmHg 64%
    12:00 0°C° 0 mm 4 mps 728 mmHg 56%
    13:00 +1°C° 0 mm 4 mps 727 mmHg 48%
    14:00 0°C° 0.4 mm 4 mps 725 mmHg 57%
    15:00 0°C° 0.4 mm 4 mps 724 mmHg 66%
    16:00 0°C° 0.4 mm 4 mps 723 mmHg 74%
    17:00 0°C° 0.7 mm 4 mps 722 mmHg 79%
    18:00 0°C° 0.7 mm 3 mps 722 mmHg 83%
    19:00 0°C° 0.7 mm 3 mps 722 mmHg 88%
    20:00 0°C° 0.5 mm 3 mps 722 mmHg 89%
    21:00 -1°C° 0.5 mm 4 mps 722 mmHg 90%
    22:00 -2°C° 0.5 mm 4 mps 722 mmHg 92%
    23:00 -1°C° 0 mm 3 mps 722 mmHg 92%

    23 January, Wednesday

    Time Temperature Precipitation Wind Pressure Humidity
    00:00 -2°C° 0 mm 3 mps 722 mmHg 92%
    01:00 -2°C° 0 mm 3 mps 722 mmHg 92%
    02:00 -4°C° 0 mm 3 mps 722 mmHg 91%
    03:00 -3°C° 0 mm 2 mps 722 mmHg 91%
    04:00 -3°C° 0 mm 2 mps 722 mmHg 90%
    05:00 -3°C° 0 mm 2 mps 721 mmHg 90%
    06:00 -4°C° 0 mm 2 mps 721 mmHg 89%
    07:00 -4°C° 0 mm 2 mps 720 mmHg 88%
    08:00 -3°C° 0 mm 2 mps 720 mmHg 85%
    09:00 -3°C° 0 mm 2 mps 719 mmHg 83%
    10:00 -3°C° 0 mm 2 mps 719 mmHg 80%
    11:00 -2°C° 0 mm 2 mps 718 mmHg 77%
    12:00 -1°C° 0 mm 2 mps 717 mmHg 75%
    13:00 -1°C° 0 mm 2 mps 717 mmHg 73%
    14:00 -1°C° 0 mm 2 mps 716 mmHg 75%
    15:00 +1°C° 0 mm 1 mps 715 mmHg 77%
    16:00 +1°C° 0 mm 1 mps 715 mmHg 80%
    17:00 0°C° 0 mm 1 mps 715 mmHg 83%
    18:00 -1°C° 0 mm 1 mps 715 mmHg 86%
    19:00 -2°C° 0 mm 1 mps 715 mmHg 89%
    20:00 -2°C° 0 mm 1 mps 715 mmHg 90%
    21:00 -2°C° 0 mm 1 mps 715 mmHg 91%
    22:00 -2°C° 0 mm 1 mps 715 mmHg 92%
    23:00 -4°C° 0.2 mm 2 mps 714 mmHg 93%
    Show more